• Processing (Info)

  • MPEC 2022-S171 : 2022 SF6

    The following Minor Planet Electronic Circular may be linked-to from your own Web pages, but must not otherwise be redistributed electronically.

    A form allowing access to any MPEC is at the bottom of this page.


    Read MPEC 2022-S170 Read MPEC 2022-S172


    M.P.E.C. 2022-S171                           Issued 2022 September 23, 06:14 UT
    
         The Minor Planet Electronic Circulars contain information on unusual
             minor planets and routine data on comets.  They are published
        on behalf of Division F of the International Astronomical Union by the
              Minor Planet Center, Smithsonian Astrophysical Observatory,
                              Cambridge, MA 02138, U.S.A.
    
                 Prepared using the Tamkin Foundation Computer Network
    
                                  MPC@CFA.HARVARD.EDU
                URL https://www.minorplanetcenter.net/    ISSN 1523-6714
    
                                    2022 SF6                                 
    
    
    Observations:
         K22S06F* C2022 09 21.95297 00 12 06.90 +12 31 51.0          19.5 RoES171K88
         K22S06F  C2022 09 21.95690 00 12 13.09 +12 30 41.1          19.6 RoES171K88
         K22S06F KC2022 09 21.97104 00 12 35.39 +12 26 32.4          19.5 RoES171K88
         K22S06F KC2022 09 21.97527 00 12 42.01 +12 25 16.5          19.7 RoES171K88
         K22S06F KC2022 09 21.98000 00 12 49.46 +12 23 53.7          19.7 RoES171K88
         K22S06F KC2022 09 21.98211 00 12 52.78 +12 23 16.2          19.3 RoES171K88
         K22S06F KC2022 09 21.98825 00 13 02.30 +12 21 28.4          19.6 RoES171K88
         K22S06F KC2022 09 21.99036 00 13 05.54 +12 20 51.8          19.6 RoES171K88
         K22S06F KC2022 09 21.99311 00 13 09.81 +12 20 04.3          19.8 RoES171K88
         K22S06F KC2022 09 21.99523 00 13 13.10 +12 19 27.2          19.3 RoES171K88
         K22S06F KC2022 09 21.99735 00 13 16.37 +12 18 49.8          19.5 RoES171K88
         K22S06F KC2022 09 21.99952300 13 27.15 +12 18 42.2          19.5 GXES171958
         K22S06F KC2022 09 22.00543400 13 36.22 +12 16 59.7          19.5 GXES171958
         K22S06F KC2022 09 22.01117500 13 44.93 +12 15 21.1          19.6 GXES171958
         K22S06F KC2022 09 22.01713700 13 53.89 +12 13 39.7          19.4 GXES171958
         K22S06F KC2022 09 22.02323900 14 03.12 +12 11 54.6          19.6 GXES171958
         K22S06F KC2022 09 22.02929300 14 12.15 +12 10 11.3          20.0 GXES171958
         K22S06F KC2022 09 22.04116100 14 29.58 +12 06 44.6          20.0 GXES171I93
         K22S06F KC2022 09 22.04508900 14 35.41 +12 05 38.1          19.7 GXES171I93
         K22S06F KC2022 09 22.04896100 14 41.13 +12 04 32.7          19.9 GXES171I93
         K22S06F 1C2022 09 22.05170 00 14 42.21 +12 03 02.5          20.1 VXES171033
         K22S06F 1C2022 09 22.05210 00 14 42.82 +12 02 55.7          19.8 VXES171033
         K22S06F KC2022 09 22.05224400 14 47.107+12 02 54.89         19.3 GVES171J95
         K22S06F 1C2022 09 22.05251 00 14 43.43 +12 02 48.9          20.0 VXES171033
         K22S06F KC2022 09 22.05253700 14 41.80 +12 03 21.6          19.6 GVES171L01
         K22S06F KC2022 09 22.05402600 14 44.01 +12 02 56.5          19.8 GVES171L01
         K22S06F KC2022 09 22.05497200 14 51.161+12 02 09.28         19.3 GVES171J95
         K22S06F KC2022 09 22.05551700 14 46.21 +12 02 31.3          19.4 GVES171L01
         K22S06F KC2022 09 22.05700600 14 48.42 +12 02 06.1          19.5 GVES171L01
         K22S06F KC2022 09 22.05764200 14 55.145+12 01 24.38         19.4 GVES171J95
         K22S06F KC2022 09 22.05849500 14 50.63 +12 01 41.3          19.8 GVES171L01
         K22S06F KC2022 09 22.05994000 14 58.519+12 00 46.37         19.2 GVES171J95
         K22S06F KC2022 09 22.08535600 16 03.847+11 55 01.34         19.2 GXES171W34
         K22S06F KC2022 09 22.09129900 16 12.494+11 53 27.24         19.8 GXES171W34
         K22S06F KC2022 09 22.09775200 16 21.886+11 51 44.68         19.4 GXES171W34
         K22S06F KC2022 09 22.84155900 31 35.80 +09 07 17.8                VES171104
         K22S06F KC2022 09 22.86518300 31 57.06 +09 03 10.7          19.4 GVES171104
         K22S06F KC2022 09 22.87201100 32 02.24 +09 01 53.0                XES171595
         K22S06F KC2022 09 22.88737200 32 15.66 +08 59 15.0          19.4 GXES171595
         K22S06F KC2022 09 22.97371400 33 29.189+08 44 49.24         19.9 GVES171K63
         K22S06F KC2022 09 22.97969100 33 34.053+08 43 49.89         20.3 GVES171K63
         K22S06F bC2022 09 23.01632300 34 02.52 +08 37 41.2          20.0 GVES171L01
         K22S06F bC2022 09 23.01747100 34 03.45 +08 37 30.5          20.3 GVES171L01
         K22S06F bC2022 09 23.01995300 34 05.48 +08 37 06.9          20.1 GVES171L01
         K22S06F bC2022 09 23.02082200 34 06.16 +08 36 58.2          19.8 GVES171L01
         K22S06F KC2022 09 23.16568300 36 23.82 +08 14 36.8          20.6 VuES171H21
         K22S06F KC2022 09 23.16848100 36 25.88 +08 14 11.8          20.6 VuES171H21
         K22S06F KC2022 09 23.17127700 36 27.94 +08 13 46.8          20.3 VuES171H21
         K22S06F KC2022 09 23.17286200 36 29.11 +08 13 32.8          20.5 VuES171H21
    
    Observer details:
    033 Karl Schwarzschild Observatory, Tautenburg.  Observers S. Melnikov, C.
        Hoegner, F. Ludwig, B. Stecklum.  Measurer B. Stecklum.  1.34-m f/3
        Schmidt + CCD.
    104 San Marcello Pistoiese.  Observers P. Bacci, M. Maestripieri.  Measurers
        P. Bacci, L. Tesi, G. Fagioli.  0.60-m F4 Reflector + CCD.
    595 Farra d'Isonzo.  Observer E. Pettarin.  0.61-m f/4.5 reflector + CCD.
    958 Observatoire de Dax.  Observers P. Dupouy, J. B. de Vanssay.  Measurer P.
        Dupouy.  0.43-m f/2.7 Reflector + CCD.
    H21 Astronomical Research Observatory, Westfield.  Observer R. Holmes.
        Measurers T. Linder, R. Holmes, L. Horn.  0.76-m f/3.0 astrograph + CCD.
    I93 St Pardon de Conques.  Observer F. Losse.  0.40-m f/3.7 reflector + CCD.
    J95 Great Shefford.  Observer P. Birtwhistle.  0.41-m f/6.3 Schmidt-Cassegrain
        + CCD.
    K63 G. Pascoli Observatory, Castelvecchio Pascoli.  Observer R. Bacci.  0.4-m
        f/3.2 0.40m f/3.2  Newton + CCD.
    K88 GINOP-KHK, Piszkesteto.  Observer K. Sarneczky.  0.60-m Schmidt + CCD.
    L01 Visnjan Observatory, Tican.  Observers K. Korlevic, L. Poropat.  Measurer
        K. Korlevic.  1.0-m f/2.9 reflector + CCD.
    W34 Squirrel Valley Observatory, Columbus.  Observer R. L. Flynn.  0.36-m
        f/1.9 0.36 Aplanatic Schmidt Cassegrain + CCD.
    
    Orbital elements:
    2022 SF6                                                 Earth MOID = 0.0071 AU
    Epoch 2022 Aug. 9.0 TT = JDT 2459800.5                  Veres                   
    M 358.11463              (2000.0)            P               Q                  
    n   0.35199156     Peri.  125.35737     +0.60502602     +0.79620287             
    a   1.9866188      Node   181.87739     -0.74992269     +0.56895798             
    e   0.5546124      Incl.    3.71691     -0.26750603     +0.20578584             
    P   2.80           H   27.52          G   0.15           U   7                  
    Residuals in seconds of arc
    220921 K88  0.6+  0.6-    220922 I93  0.1+  0.3+    220922 W34  0.4-  0.6+
    220921 K88  0.1-  0.6-    220922 I93  0.1+  0.2+    220922 104  0.4+  0.1+
    220921 K88  0.1-  1.1+    220922 I93  0.2-  0.2+    220922 104  0.6-  0.8-
    220921 K88  0.3-  0.3-    220922 033  0.1+  0.1+    220922 595  0.2+  0.3-
    220921 K88  0.5+  0.1+    220922 033  0.3+  0.1+    220922 595  0.7-  0.2+
    220921 K88  0.9+  0.3-    220922 J95  0.2+  0.2-    220922 K63  0.2+  0.3+
    220921 K88  0.4+  0.6-    220922 033  0.2+  0.2+    220922 K63  0.4+  0.4+
    220921 K88  0.1-  0.3-    220922 L01  0.2+  0.1+    220923 L01  0.4-  0.7-
    220921 K88  0.0   0.2+    220922 L01  0.1+  0.2+    220923 L01  0.2-  0.1-
    220921 K88  0.1+  0.1+    220922 J95  0.0   0.0     220923 L01  0.5+  0.6+
    220921 K88  0.0   0.4-    220922 L01  0.3-  0.2+    220923 L01  0.4+  0.4+
    220921 958  0.8-  0.2+    220922 L01  0.4-  0.1+    220923 H21  0.0   0.0
    220922 958  0.2+  0.4-    220922 J95  0.1+  0.1-    220923 H21  0.1-  0.0
    220922 958  0.4+  0.2-    220922 L01  0.5-  0.5+    220923 H21  0.0   0.0
    220922 958  0.3-  0.6+    220922 J95  0.5-  0.4+    220923 H21  0.0   0.2+
    220922 958  0.6+  0.2-    220922 W34  0.9+  0.7-
    220922 958  0.0   0.3-    220922 W34  0.2-  0.2+
    
    Ephemeris:
    2022 SF6                 a,e,i = 1.99, 0.55, 4                   q = 0.8848
    Date    TT    R. A. (2000) Decl.     Delta      r    Elong.  Phase     V
    2022 08 24    13 24 00.1 +03 10 56   0.1948  0.8945    48.6   122.0    28.7
    ...
    2022 09 08    13 44 15.4 +04 44 27   0.08315 0.9451    39.7   137.1    28.5
    ...
    2022 09 16    14 25 44.9 +11 57 23   0.02614 0.9868    43.6   135.4    25.9
    ...
    2022 09 22    00 13 25.1 +12 22 37   0.01979 1.0232   166.3    13.4    19.8
    2022 09 23    00 33 50.6 +08 43 47   0.02654 1.0296   167.5    12.1    20.4
    2022 09 24    00 45 40.1 +06 32 15   0.03349 1.0361   167.5    12.1    21.0
    ...
    2022 09 30    01 09 34.4 +01 52 45   0.07670 1.0769   168.6    10.6    22.8
    ...
    2022 10 08    01 16 22.4 +00 24 14   0.1371  1.1353   172.1     6.9    24.0
    ...
    2022 10 23    01 19 19.2 +00 02 01   0.2628  1.2523   166.6    10.6    25.8
    
    M. P. C. Staff               (C) Copyright 2022 MPC           M.P.E.C. 2022-S171
    


    Read MPEC 2022-S170 Read MPEC 2022-S172


    MPEC number:

    Enter an MPEC number in one of the following forms:

    • 1997-B01 (the full form)
    • J97B01 (the packed version of the full form)
    • B01 (the abbreviated form)